User: anonymous   Login
Location: Utrecht
(52.0830°N, 5.1330°E)
Time: 18:45:26
(UTC+01:00)
Language:

Cosmos 1092 Rocket - Orbit

View from above orbital plane
View from above orbital plane
View from above satellite
View from above satellite

Ground track
Ground track

The orbit data is extracted from the following two-line orbital elements,

1 11327U 79030B   15085.44819591  .00000091  00000-0  76864-4 0  9998
2 11327 082.9530 180.0662 0026298 298.6640 111.1650 13.76956101807153
Epoch (UTC): 26 March 2015 10:45:24
Eccentricity: 0.0026298
inclination: 82.9530°
perigee height: 955 km
apogee height: 994 km
right ascension of ascending node: 180.0662°
argument of perigee: 298.6640°
revolutions per day: 13.76956101
mean anomaly at epoch: 111.1650°
orbit number at epoch: 80715

The dashed part of the orbit path shows where the satellite is in the earth's shadow,  

DLR